Location: Evensen
(52.5775°N, 9.5258°E)
Time: 15:33:57
(UTC+00:00)

Cosmos 1766 Rocket - Pass Details

Date: 15 May 2026
Orbit: 598 x 625 km, 82.5° (Epoch: 10 June)

Event Time Altitude Azimuth Distance (km) Brightness Sun altitude
Rises 23:02:06 0° 350° (N) 2,859 8.7 -18.3°
Reaches altitude 10° 23:04:20 10° 353° (N) 1,951 7.4 -18.3°
Maximum altitude 23:08:38 69° 77° (ENE) 646 3.6 -18.3°
Enters shadow 23:10:12 38° 149° (SSE) 930 4.0 -18.4°
